Location: Newark
(54.4000°N, 32.4500°E)
Time: 18:43:03
(UTC+00:00)

ISS - Pass Details

Date: 27 January 2020
Orbit: 416 x 422 km, 51.6° (Epoch: 17 February)

Event Time Altitude Azimuth Distance (km) Brightness Sun altitude
Rises 16:39:22 0° 254° (WSW) 2,376 1.5 -20.2°
Reaches altitude 10° 16:41:30 10° 249° (WSW) 1,510 0.1 -20.5°
Enters shadow 16:44:33 49° 192° (SSW) 553 -3.2 -20.9°
